星链-31346 (STARLINK-31346 )

导读

STARLINK-31346是美国太空探索技术公司SpaceX星链星座的成员卫星,于2024年2月10日由猎鹰九号运载火箭在加州范登堡太空军基地发射升空,属于第二代星链卫星。它被部署到近地轨道,主要为全球提供高速互联网接入服务,是星链大规模星座组网部署的重要组成部分,单星具备较高通信传输能力,支撑星链全球覆盖网络的构建。

基本信息
目录编号:
58943
目录名称:
STARLINK-31346
国际标识:
2024-027N
轨道中心:
EARTH
卫星名称:
星链-31346
卫星全名:
星链-31346 (STARLINK-31346 )
卫星状态:
在轨 (已飞行944 天)
发射日期:
2024-02-10 UTC
国别 :
美国 (US)
星等 :
--
该卫星已列入 空间交会检测服务 Space Conjunction Data Service (SCDS) ,当前飞行风险评估等级: 高风险
轨道信息
数据来源 国际轨道数据
星历时间: 2026-09-11T12:47:05+0800
9小时前
查看轨道信息
半长轴: 6840.791km
偏心率: 0.0001236
轨道倾角: 53.160°
近地点辐角 105.175°
升交点赤经 164.921°
平近点角 254.939°
近地点: 461.808km
远地点: 463.5km
周期: 93.847分钟
每日圈数: 15.344168
详细信息
固有亮度:
5
最大亮度:
0.3
卫星平台:
Starlink v2.0 mini
覆盖范围:
全球
运营商:
太空探索技术公司
运营商所在国:
美国
制造商(研发单位):
太空探索技术公司
制造商所在国:
美国
使用方式:
暂无
卫星简介
星链(Starlink)计划是由太空探索技术公司(SpaceX)提出的一个巨型低轨卫星互联网星座项目,计划在2019年至2024年间在太空搭建由约1.2万颗卫星组成的“星链”网络,其中1584颗将部署在地球上空550千米处的近地轨道,并从2020年开始工作。该卫星仍在工作。
2D轨道图
3D轨道图
轨道高度分析图
轨道倾角分析图
轨道综合分析图
查看轨道综合分析图
交会数据列表
事件ID 空间交会对象 最接近时刻(TCA) 交会距离 交会风险概率(CRP) 交会风险指数(CRI) 操作
CDM_260913-041005-894306-690321
2026-09-13T
04:10:46+0000
0.268 km
中距离
4.445898E-4 高风险 0.88
CDM_260913-114605-894306-636021
2026-09-13T
11:46:51+0000
0.675 km
远距离
6.068993E-5 中风险 0.71
CDM_260912-153705-894306-946721
2026-09-12T
15:37:37+0000
0.609 km
远距离
5.982779E-5 中风险 0.71
CDM_260912-232605-894306-693521
2026-09-12T
23:26:55+0000
0.641 km
远距离
5.396997E-5 中风险 0.7
CDM_260913-114605-866205-894322
2026-09-13T
11:46:36+0000
1.123 km
极远距离
1.73654E-5 中风险 0.6
CDM_260912-100905-894306-946721
2026-09-12T
10:09:20+0000
1.060 km
极远距离
9.805788E-6 低风险 0.55
CDM_260912-193005-894306-573621
2026-09-12T
19:30:27+0000
1.069 km
极远距离
6.529057E-6 低风险 0.51
CDM_260912-130905-894306-895621
2026-09-12T
13:09:39+0000
1.229 km
极远距离
6.001702E-6 低风险 0.51
CDM_260912-060705-894306-895621
2026-09-12T
06:07:35+0000
1.273 km
极远距离
5.33986E-6 低风险 0.5
CDM_260912-193405-894306-690321
2026-09-12T
19:34:55+0000
1.587 km
极远距离
3.515154E-6 低风险 0.46
与全量物体交会距离演化趋势
与全量物体交会风险概率演化趋势